Regional Weather Roundup
Issued by NWS

Home | Current Version | Previous Version | Graphics & Text | Print | Product List | Glossary Off
Versions: 1 2 3 4 5 6 7 8 9 10 11 12 13 14 15 16 17 18 19 20 21 22 23 24 25 26 27 28 29 30 31 32 33 34 35 36 37 38 39 40 41 42 43 44 45 46 47 48 49 50

000
ASUS43 KMKX 290610
RWRWI

WISCONSIN REGIONAL WEATHER ROUNDUP
NATIONAL WEATHER SERVICE MILWAUKEE/SULLIVAN WI
1200 AM CST THU JAN 29 2015

NOTE: "FAIR" INDICATES FEW OR NO CLOUDS BELOW 12,000 FEET WITH NO
SIGNIFICANT WEATHER AND/OR OBSTRUCTIONS TO VISIBILITY.

WIZ001-002-006>008-014>016-023>028-290700-
NORTHWEST WISCONSIN

CITY           SKY/WX    TMP DP  RH WIND       PRES   REMARKS
SUPERIOR ARPT  CLOUDY    30  28  92 W5        29.85S FOG     WCI  25
6HR MIN TEMP:  30; 6HR MAX TEMP:  31;

ASHLAND        CLOUDY    28  27  96 SW5       29.84S FOG     WCI  23
6HR MIN TEMP:  28; 6HR MAX TEMP:  31;

HAYWARD        FOG       27  25  92 CALM      29.82S VSB 3/4
6HR MIN TEMP:  26; 6HR MAX TEMP:  28;

SIREN          CLOUDY    29  29  99 NW7       29.86R FOG     WCI  22
6HR MIN TEMP:  29; 6HR MAX TEMP:  31;

CUMBERLAND     FOG       28  27  93 NW5       29.83R VSB 1   WCI  23
RICE LAKE      FOG       28  27  98 CALM      29.85R VSB 1/2
6HR MIN TEMP:  27; 6HR MAX TEMP:  29;

CHETEK         CLOUDY    27  26  96 CALM      29.83R FOG
6HR MIN TEMP:  27; 6HR MAX TEMP:  28;

LADYSMITH      CLOUDY    28  24  86 W3        29.83R
6HR MIN TEMP:  27; 6HR MAX TEMP:  28;

EAU CLAIRE     CLOUDY    29  23  78 NW3       29.82R
6HR MIN TEMP:  29; 6HR MAX TEMP:  29;

MENOMONIE      FOG       29  28  93 NW3       29.83S VSB 1
6HR MIN TEMP:  29; 6HR MAX TEMP:  31;

NEW RICHMOND   CLOUDY    29  29 100 NW6       29.85R FOG     WCI  23
6HR MIN TEMP:  29; 6HR MAX TEMP:  31;

OSCEOLA        CLOUDY    30  30 100 NW6       29.89R FOG     WCI  24
6HR MIN TEMP:  30; 6HR MAX TEMP:  31;

$$

WIZ003>005-009-010-017-018-290700-
NORTH CENTRAL WISCONSIN

CITY           SKY/WX    TMP DP  RH WIND       PRES   REMARKS
MANITOWISH WTR CLOUDY    26  21  82 CALM      29.77F
6HR MIN TEMP:  26; 6HR MAX TEMP:  27;

ARBOR VITAE    CLOUDY    27  22  81 SW6       29.78F WCI  20
6HR MIN TEMP:  27; 6HR MAX TEMP:  29;

WOODRUFF       CLOUDY    27  22  81 SW6       29.78F WCI  20
6HR MIN TEMP:  27; 6HR MAX TEMP:  29;

RHINELANDER    CLOUDY    26  20  77 SW5       29.78F WCI  20
6HR MIN TEMP:  26; 6HR MAX TEMP:  27;

EAGLE RIVER    CLOUDY    26  20  79 CALM      29.77F
6HR MIN TEMP:  26; 6HR MAX TEMP:  28;

LAND O LAKES   CLOUDY    27  22  82 CALM      29.78F
6HR MIN TEMP:  27; 6HR MAX TEMP:  29;

PHILLIPS       CLOUDY    26  22  86 W5        29.78S WCI  20
6HR MIN TEMP:  26; 6HR MAX TEMP:  28;

TOMAHAWK       CLOUDY    26  21  83 CALM      29.79S
6HR MIN TEMP:  26; 6HR MAX TEMP:  27;

MEDFORD        CLOUDY    25  23  93 S5        29.78S FOG     WCI  19
6HR MIN TEMP:  25; 6HR MAX TEMP:  27;

MERRILL        CLOUDY    26  24  91 CALM      29.79F FOG
6HR MIN TEMP:  26; 6HR MAX TEMP:  28;

$$

WIZ029-030-035-036-043>047-290700-
CENTRAL WISCONSIN

CITY           SKY/WX    TMP DP  RH WIND       PRES   REMARKS
WAUSAU         CLOUDY    26  23  88 SE5       29.78F FOG     WCI  20
6HR MIN TEMP:  26; 6HR MAX TEMP:  28;

MOSINEE        CLOUDY    27  27 100 SE3       29.80S FOG
MARSHFIELD     CLOUDY    27  24  89 CALM      29.79F FOG
6HR MIN TEMP:  27; 6HR MAX TEMP:  29;

STEVENS POINT  CLOUDY    26  21  83 CALM      29.80F
6HR MIN TEMP:  26; 6HR MAX TEMP:  27;

WAUPACA        CLOUDY    31  24  75 E3        29.81F
6HR MIN TEMP:  29; 6HR MAX TEMP:  31;

WAUTOMA        CLOUDY    29  23  78 CALM      29.80F
6HR MIN TEMP:  28; 6HR MAX TEMP:  30;

WISC RAPIDS    CLOUDY    27  22  81 CALM      29.81F
6HR MIN TEMP:  27; 6HR MAX TEMP:  28;

CAMP DOUGLAS   MIX PCPN  29  29 100 N5        29.79F WCI  24
6HR MIN TEMP:  29; 6HR MAX TEMP:  30; 6HR PCP: TRACE;

$$

WIZ011>013-019>022-031-037>040-048>050-290700-
NORTHEAST WISCONSIN

CITY           SKY/WX    TMP DP  RH WIND       PRES   REMARKS
ANTIGO         CLOUDY    25  22  89 S7        29.78F WCI  17
6HR MIN TEMP:  25; 6HR MAX TEMP:  26;

SHAWANO        CLOUDY    31  26  80 CALM      29.82F
6HR MIN TEMP:  30; 6HR MAX TEMP:  32;

OCONTO         CLOUDY    31  26  81 CALM      29.83F
6HR MIN TEMP:  29; 6HR MAX TEMP:  31;

STURGEON BAY   CLOUDY    32  25  74 S12       29.85F WCI  23
6HR MIN TEMP:  30; 6HR MAX TEMP:  32;

GREEN BAY      CLOUDY    32  25  75 S8        29.82F WCI  25
6HR MIN TEMP:  30; 6HR MAX TEMP:  32;

MANITOWOC      CLOUDY    34  27  75 S13       29.83F WCI  25
6HR MIN TEMP:  32; 6HR MAX TEMP:  34;

APPLETON       CLOUDY    30  23  74 SE5       29.81F WCI  25
CLINTONVILLE   CLOUDY    30  23  74 CALM      29.81F
OSHKOSH        CLOUDY    31  23  72 CALM      29.80F
6HR MIN TEMP:  30; 6HR MAX TEMP:  31;

$$

WIZ032>034-041-042-053>061-290700-
SOUTHWEST WISCONSIN

CITY           SKY/WX    TMP DP  RH WIND       PRES   REMARKS
LA CROSSE      CLOUDY    33  27  78 NW3       29.80S
6HR MIN TEMP:  33; 6HR MAX TEMP:  35;

SPARTA         CLOUDY    30  28  93 CALM      29.80F FOG
6HR MIN TEMP:  30; 6HR MAX TEMP:  33;

VIROQUA        CLOUDY    31  30  96 N3        29.76S
6HR MIN TEMP:  31; 6HR MAX TEMP:  31;

BOSCOBEL       CLOUDY    34  28  79 N3        29.77F
6HR MIN TEMP:  33; 6HR MAX TEMP:  34;

PRAIRIE DU CHI CLOUDY    33  28  83 CALM      29.77R
6HR MIN TEMP:  32; 6HR MAX TEMP:  33;

PLATTEVILLE    CLOUDY    31  28  92 NE6       29.72F WCI  25
6HR MIN TEMP:  30; 6HR MAX TEMP:  32;

$$

WIZ056-057-062-063-064-067-068-290700-
SOUTH CENTRAL WISCONSIN

CITY           SKY/WX    TMP DP  RH WIND       PRES   REMARKS
REEDSBURG      CLOUDY    31  28  85 NE3       29.77F
6HR MIN TEMP:  30; 6HR MAX TEMP:  32;

BARABOO/DELLS  CLOUDY    32  27  81 CALM      29.77F
6HR MIN TEMP:  30; 6HR MAX TEMP:  32;

LONE ROCK      CLOUDY    33  28  81 E6        29.77F WCI  28
6HR MIN TEMP:  32; 6HR MAX TEMP:  33;

MINERAL POINT  CLOUDY    32  30  93 E5        29.73F WCI  27
MADISON        CLOUDY    32  25  75 S5        29.77F WCI  27
6HR MIN TEMP:  31; 6HR MAX TEMP:  32; 6HR PCP: TRACE;

MIDDLETON      CLOUDY    33  27  78 SE5       29.76F WCI  29
6HR MIN TEMP:  32; 6HR MAX TEMP:  33;

WATERTOWN      CLOUDY    32  25  73 SE7       29.78F WCI  26
6HR MIN TEMP:  30; 6HR MAX TEMP:  32;

MONROE         PTCLDY    30  28  93 SE7       29.73F WCI  23
JANESVILLE     CLOUDY    34  27  75 S8        29.76F WCI  27
$$

WIZ051-052-058>065-066-070>072-290700-
SOUTHEAST WISCONSIN

CITY           SKY/WX    TMP DP  RH WIND       PRES   REMARKS
MILWAUKEE      LGT RAIN  33  23  66 S10       29.81F WCI  25
6HR MIN TEMP:  32; 6HR MAX TEMP:  33; 6HR PCP:  0.01;

WAUKESHA       CLOUDY    30  23  74 SE6       29.80F WCI  24
MILWAUKEE/TIMM MIX PCPN  32  21  64 S9        29.82F WCI  24
RACINE         CLOUDY    33  25  72 S13       29.83F WCI  24
6HR MIN TEMP:  32; 6HR MAX TEMP:  34; 6HR PCP: TRACE;

BURLINGTON     CLOUDY    33  24  69 S9        29.78F WCI  25
6HR MIN TEMP:  29; 6HR MAX TEMP:  33;

KENOSHA        CLOUDY    34  23  64 S12       29.80F WCI  25
6HR MIN TEMP:  30; 6HR MAX TEMP:  34; 6HR PCP: TRACE;

FOND DU LAC    MIX PCPN  32  23  69 S6        29.80F WCI  26
6HR MIN TEMP:  30; 6HR MAX TEMP:  32; 6HR PCP: TRACE;

SHEBOYGAN      FLURRIES  33  24  69 S10       29.82F WCI  25
6HR MIN TEMP:  31; 6HR MAX TEMP:  33; 6HR PCP: TRACE;

WEST BEND      CLOUDY    32  21  64 SE5       29.80F WCI  27
JUNEAU         CLOUDY    31  25  78 SE5       29.80F WCI  26
6HR MIN TEMP:  29; 6HR MAX TEMP:  31;

$$

LSZ147-162-290700-
LAKE SUPERIOR

STATION/POSITION TIME  TEMP    WIND        PRES    WAVE
                       AIR SEA DIR/SP/G            HT/PER
                 (UTC) (F)     (DEG/KT/KT) (MB)    (FT/S)
DEVILS ISLAND    0600   31     270/ 14/ 16 1010.9F
PORT WING        0500   30     250/  3/  6 1010.8S
SAXON HARBOR     0500   31     220/  4/  9 1010.5S
$$

LMZ867-665-643>646-290700-
LAKE MICHIGAN

STATION/POSITION TIME  TEMP    WIND        PRES    WAVE


USA.gov is the U.S. government's official web portal to all federal, state and local government web resources and services.